Weather History for KRXE - June, 2013

Change the Weather History Date:

Saturday, June 22, 2013

  Actual Average Record
Temperature  
Mean Temperature 58 °F 61 °F  
Max Temperature 69 °F 76 °F 91 °F (2001)
Min Temperature 47 °F 47 °F 40 °F (2004)
Degree Days  
Heating Degree Days 7 4  
Month to date heating degree days 107 143  
Since 1 June heating degree days 107 143  
Since 1 July heating degree days 7791 8101  
Cooling Degree Days 0 1  
Month to date cooling degree days 20 10  
Year to date cooling degree days 22 14  
Since 1 June cooling degree days 20 10  
Growing Degree Days 8 (Base 50)    
Moisture  
Dew Point 35 °F    
Average Humidity 47    
Maximum Humidity 66    
Minimum Humidity 27    
Precipitation  
Precipitation T in 0.04 in - ()
Month to date precipitation 0.22 1.19  
Year to date precipitation 4.47 7.06  
Sea Level Pressure  
Sea Level Pressure 29.97 in    
Wind  
Wind Speed 11 mph (SSW)    
Max Wind Speed 21 mph    
Max Gust Speed 29 mph    
Visibility 10 miles    
Events      
T = Trace of Precipitation, MM = Missing Value Source: NWS Daily Summary

Daily Weather History Graph

Daily Weather History Graph

Search for Another Location

Airport or City:

Trip Planner

Search our weather history database for the weather conditions in past years. The results will help you decide how hot, cold, wet, or windy it might be!

Date:

Astronomy

Jun. 22, 2013 Rise Set
Actual Time 5:45 AM MDT 9:13 PM MDT
Civil Twilight 5:09 AM MDT 9:49 PM MDT
Nautical Twilight 4:21 AM MDT 10:36 PM MDT
Astronomical Twilight 3:21 AM MDT 11:37 PM MDT
Moon 8:29 PM MDT (6/22) 5:03 AM MDT (6/22)
Length of Visible Light 16h 40m
Length of Day
15h 27m
Waxing Gibbous, 99% of the Moon is Illuminated
Jun 22
Waxing Gibbous
Jun 23
Full
Jun 29
Last Quarter
Jul 8
New
Jul 15
First Quarter

Hourly Weather History & Observations

Time (MDT) Temp. Dew Point Humidity Pressure Visibility Wind Dir Wind Speed Gust Speed Precip Events Conditions
12:53 AM 50.0 °F 34.0 °F 54% 29.96 in 10.0 mi South 5.8 mph - N/A   Partly Cloudy
1:53 AM 51.1 °F 33.1 °F 50% 29.95 in 10.0 mi South 4.6 mph - N/A   Overcast
2:53 AM 48.0 °F 33.1 °F 56% 29.96 in 10.0 mi SSW 8.1 mph - N/A   Scattered Clouds
3:53 AM 48.9 °F 32.0 °F 52% 29.95 in 10.0 mi South 5.8 mph - N/A   Mostly Cloudy
4:53 AM 48.0 °F 32.0 °F 54% 29.96 in 10.0 mi SSW 8.1 mph - 0.00 in   Mostly Cloudy
5:53 AM 48.0 °F 32.0 °F 54% 29.98 in 10.0 mi SSW 8.1 mph - N/A   Mostly Cloudy
6:53 AM 48.0 °F 34.0 °F 58% 30.00 in 10.0 mi SSW 9.2 mph - N/A   Overcast
7:53 AM 48.0 °F 37.0 °F 66% 30.01 in 10.0 mi SSW 8.1 mph - 0.00 in   Overcast
8:53 AM 50.0 °F 37.0 °F 61% 30.02 in 10.0 mi SSW 10.4 mph - 0.00 in   Mostly Cloudy
9:53 AM 55.0 °F 36.0 °F 49% 30.02 in 10.0 mi South 12.7 mph - N/A   Overcast
10:53 AM 55.9 °F 37.0 °F 49% 30.01 in 10.0 mi SSW 11.5 mph 21.9 mph N/A   Mostly Cloudy
11:53 AM 60.1 °F 37.9 °F 44% 30.02 in 10.0 mi South 9.2 mph 20.7 mph N/A   Clear
12:53 PM 61.0 °F 37.0 °F 41% 30.00 in 10.0 mi SSW 15.0 mph 23.0 mph N/A   Partly Cloudy
1:53 PM 64.0 °F 37.0 °F 37% 29.98 in 10.0 mi SSW 16.1 mph 25.3 mph N/A   Partly Cloudy
2:53 PM 66.0 °F 32.0 °F 28% 29.97 in 10.0 mi SSW 18.4 mph 26.5 mph N/A   Clear
3:53 PM 68.0 °F 34.0 °F 28% 29.95 in 10.0 mi SSW 17.3 mph 26.5 mph N/A   Scattered Clouds
4:53 PM 66.9 °F 34.0 °F 30% 29.94 in 10.0 mi South 17.3 mph 26.5 mph N/A   Partly Cloudy
5:53 PM 66.0 °F 35.1 °F 32% 29.94 in 10.0 mi SSW 21.9 mph 27.6 mph N/A   Partly Cloudy
6:53 PM 66.0 °F 35.1 °F 32% 29.94 in 10.0 mi SSW 15.0 mph 25.3 mph N/A   Clear
7:53 PM 64.0 °F 34.0 °F 33% 29.94 in 10.0 mi South 12.7 mph - N/A   Partly Cloudy
8:53 PM 61.0 °F 35.1 °F 38% 29.95 in 10.0 mi SSW 8.1 mph - N/A   Clear
9:53 PM 57.9 °F 37.9 °F 47% 29.96 in 10.0 mi South 8.1 mph - N/A   Mostly Cloudy
10:53 PM 55.9 °F 35.1 °F 45% 29.97 in 10.0 mi South 9.2 mph - N/A   Clear
11:53 PM 54.0 °F 34.0 °F 47% 29.96 in 10.0 mi South 8.1 mph - N/A   Clear